Dewpoint
38 38 38 39 38 38 38 38 38 37 37 37 38 38 39 40 39 39 39 39 39 38 38 37 36 34 34 35 34 34 33 32 31 31 31 32 32 32 33 33 33 33 33 33 33 33 33 33 33 33 34 34 34 34 35 35 35 36 36 36 36 37 37 37 38 38 38 38 38 38 38 38 38 38 37 37 37 37 38 38 38 38 38 39 39 39
37 37 38 38 38 37 37 37 37 37 37 37 37 37 38 38 38 38 38 38 38 37 37 37 36 34 32 33 34 33 32 31 31 31 31 31 32 32 32 32 32 32 32 32 32 32 32 32 33 33 33 34 34 34 34 35 35 35 35 36 36 36 36 37 37 37 37 37 37 37 37 37 37 37 37 37 37 37 37 38 38 38 39 39 39 39
36 36 37 37 37 37 36 37 37 37 37 36 36 37 36 36 36 36 36 37 37 37 37 37 35 33 30 30 32 33 32 30 30 30 30 31 31 31 31 31 31 31 31 31 31 31 31 32 32 33 33 34 34 34 34 34 35 35 35 35 35 36 36 36 36 36 37 37 37 37 37 36 36 36 36 37 37 37 38 38 38 38 39 39 39 39
35 35 36 36 36 36 36 36 36 37 37 36 36 36 35 35 35 35 36 36 36 35 35 34 32 29 26 26 30 32 31 30 30 30 30 30 30 31 31 30 30 30 30 30 30 31 31 32 32 33 33 34 34 34 34 34 34 34 34 35 35 35 35 36 36 36 36 36 36 36 36 36 36 36 37 37 37 37 37 37 38 38 38 38 38 39
35 35 35 35 35 35 35 36 36 36 36 36 36 35 35 35 35 35 36 35 34 33 32 30 27 25 24 23 27 31 31 30 30 30 30 30 30 30 30 30 30 30 30 30 30 31 32 32 33 33 33 34 34 34 34 34 34 34 34 34 34 34 34 34 34 35 35 35 35 35 35 35 36 36 36 36 36 37 37 37 37 37 37 38 38 38
34 35 35 35 34 34 35 35 36 36 35 35 35 34 34 34 34 34 34 32 30 29 27 25 24 24 23 24 28 31 31 30 29 29 29 29 29 29 29 29 29 30 30 30 31 31 32 32 33 33 33 33 33 33 33 33 33 33 33 33 33 33 34 34 34 34 34 34 34 34 34 35 35 35 35 35 36 36 36 36 37 37 37 38 38 38
34 34 35 34 34 34 34 35 35 35 35 34 34 33 33 32 31 30 29 27 26 26 25 25 24 23 22 25 28 30 30 30 29 28 29 28 28 28 29 29 29 30 30 30 31 31 32 32 32 32 33 33 33 33 33 33 33 32 32 33 33 33 33 33 33 33 34 34 34 34 34 34 34 34 34 35 35 35 36 36 36 37 37 38 38 38
34 34 34 33 34 34 34 34 34 35 34 34 33 31 30 29 28 26 25 25 25 24 25 24 23 22 20 21 24 27 27 27 27 27 28 28 29 29 29 29 29 30 30 30 31 31 31 32 32 32 32 32 32 32 32 32 32 32 32 32 32 32 32 32 33 33 33 33 33 34 34 34 34 34 34 34 35 35 35 36 36 37 37 38 38 38
33 33 32 32 32 33 33 33 33 33 33 33 32 31 28 26 25 25 25 24 24 23 23 22 21 20 19 19 20 23 28 26 25 25 25 26 27 28 29 29 29 30 30 30 30 31 31 31 31 31 31 31 31 31 31 31 31 31 31 31 31 31 32 32 32 32 33 33 33 33 34 34 34 34 34 34 34 35 35 35 36 36 37 37 38 38
32 32 32 31 32 32 32 32 32 31 30 31 30 29 26 25 24 23 24 24 23 23 22 21 20 19 19 19 20 22 26 26 27 26 26 26 26 27 28 28 28 29 29 30 30 30 30 30 30 30 30 30 30 30 30 30 30 30 31 31 31 31 31 31 32 32 32 33 33 33 34 34 34 34 34 34 34 35 35 35 35 36 36 37 38 38
31 31 31 31 31 31 31 31 30 29 28 28 27 26 26 25 24 23 22 23 22 21 21 21 21 20 19 19 20 22 24 22 23 24 25 26 26 27 27 27 27 28 28 29 29 29 29 29 29 30 30 30 30 30 30 30 30 30 30 30 30 31 31 31 32 32 32 33 33 34 34 34 34 34 34 34 35 35 35 35 35 36 36 37 37 38
30 30 30 30 30 30 29 29 28 27 27 26 25 25 25 24 24 23 23 23 21 20 20 20 20 20 20 19 21 21 21 20 19 20 21 22 24 25 25 25 26 27 27 27 28 28 28 28 28 29 29 29 30 30 30 30 30 30 30 30 30 31 31 32 32 32 33 33 34 34 34 34 34 34 35 35 35 35 35 35 35 36 36 36 37 38
29 29 29 29 29 28 27 26 26 26 26 25 24 24 24 23 22 22 22 21 21 20 19 20 20 20 20 20 20 21 20 19 19 19 19 20 21 21 21 21 21 22 22 23 23 25 27 27 28 28 28 28 29 29 29 30 30 30 30 30 31 31 32 32 32 33 33 34 34 34 34 34 34 34 35 35 35 35 35 35 36 36 36 36 37 37
28 28 28 27 27 26 26 25 25 24 25 25 24 24 24 22 21 21 20 20 20 20 20 20 20 20 20 20 21 21 20 19 19 20 20 20 20 21 21 21 21 20 20 20 20 22 25 26 26 26 28 28 28 29 29 30 30 30 30 31 31 32 32 32 33 33 33 34 34 34 34 34 34 34 35 35 35 35 35 35 36 36 36 36 36 37
27 27 26 25 25 25 25 25 24 24 24 23 23 22 21 21 20 20 19 19 20 21 21 20 19 19 19 20 20 21 20 20 20 20 20 21 21 21 20 20 20 20 20 20 20 21 24 25 24 24 25 27 28 29 29 30 30 30 31 31 31 32 32 32 32 33 33 33 34 34 34 34 34 34 34 35 35 35 35 35 35 36 36 36 36 36
27 26 25 25 25 25 25 24 24 23 22 22 21 21 20 20 20 20 20 20 20 20 20 19 18 18 19 20 21 22 21 21 21 21 21 21 21 21 20 20 20 20 20 20 20 20 21 22 22 23 24 26 28 29 29 30 30 30 31 31 31 32 32 32 32 33 33 33 34 34 34 34 34 34 34 34 35 35 35 35 35 36 36 36 36 36
26 26 25 25 25 25 24 23 22 22 21 21 21 21 21 21 21 21 21 21 20 20 19 19 18 18 18 18 20 21 22 21 21 21 21 21 21 21 21 20 20 20 20 20 20 20 21 21 21 22 23 26 28 29 29 29 30 30 30 31 31 32 32 32 32 33 33 33 34 34 34 34 34 34 34 34 34 35 35 35 35 35 36 36 36 36
26 26 25 25 25 24 23 22 21 21 21 21 22 22 22 21 21 21 20 20 20 19 18 18 18 17 17 17 18 19 21 21 21 21 21 21 21 21 20 20 20 19 19 20 20 21 21 21 21 22 23 27 28 29 29 29 30 30 30 31 31 32 32 32 33 33 33 34 34 34 34 34 34 34 34 34 34 34 35 35 35 35 36 36 36 37
26 26 25 25 24 23 22 21 21 21 21 22 22 21 21 19 19 19 18 18 18 18 17 17 17 17 17 17 18 18 20 21 21 21 21 20 20 20 20 20 20 20 20 20 21 21 21 21 23 26 28 28 28 28 29 29 30 30 30 31 31 32 32 32 33 33 33 33 34 34 34 34 34 34 34 34 34 34 35 35 35 35 36 36 36 36
25 25 24 23 22 21 21 23 24 24 24 23 21 20 18 18 17 17 17 17 17 17 17 17 17 17 17 17 18 19 19 21 21 21 20 20 19 19 19 20 20 20 20 20 20 20 21 21 21 24 27 28 28 28 28 29 30 30 30 31 31 32 32 32 32 33 33 33 33 34 34 34 34 34 34 34 34 34 34 34 35 35 35 35 35 36
23 23 23 22 22 21 22 23 23 24 25 23 20 17 18 17 17 17 17 16 16 16 16 17 17 18 18 18 19 19 19 21 21 21 20 19 19 19 19 20 20 19 19 20 20 20 21 20 20 21 25 27 28 28 28 29 30 30 30 31 31 31 32 32 32 32 33 33 33 33 33 34 34 34 34 34 34 34 34 34 34 34 34 34 35 35
24 23 23 23 23 24 25 23 24 26 27 22 20 20 20 18 18 17 16 16 17 17 18 18 19 19 19 20 21 21 18 21 21 20 19 19 19 19 19 20 19 19 19 19 20 20 20 20 20 21 25 27 28 28 28 29 30 30 30 30 31 31 31 32 32 32 32 33 33 33 33 33 33 33 34 34 34 34 34 34 34 34 34 34 34 34
24 24 23 24 24 25 25 24 25 26 27 23 23 22 21 20 20 19 18 18 18 19 19 19 19 19 19 20 20 20 20 21 21 20 18 17 18 19 19 20 19 19 19 19 19 20 20 20 20 21 25 26 27 28 28 29 29 30 30 30 30 31 31 31 32 32 32 32 32 32 33 33 33 33 33 33 33 33 34 34 34 34 34 34 34 34
24 24 24 23 23 23 24 24 24 24 24 23 22 21 21 21 21 21 20 20 20 19 19 18 18 18 19 20 20 20 20 21 20 19 17 17 18 19 19 19 20 20 20 20 19 19 20 20 20 21 23 25 27 27 28 28 29 29 30 30 30 30 31 31 31 31 32 32 32 32 32 33 33 33 33 33 33 33 33 33 34 34 34 34 34 34
23 23 24 23 24 25 25 25 25 25 24 22 22 22 22 23 24 24 21 21 20 19 19 18 16 16 16 19 19 18 18 17 18 18 17 16 17 18 19 19 19 19 19 19 20 20 20 20 20 21 21 23 25 27 28 28 28 29 29 30 30 30 30 30 31 31 31 31 32 32 32 32 32 32 33 33 33 33 33 33 33 33 33 33 33 33
28 27 26 27 28 29 29 30 30 30 28 26 25 23 23 25 25 24 22 22 22 21 21 19 16 16 16 16 16 17 18 16 17 18 17 16 17 17 18 19 19 19 19 20 20 21 20 21 21 21 21 21 24 27 27 27 28 28 29 29 30 30 30 30 30 30 31 31 31 31 32 32 32 32 32 32 32 32 33 33 33 32 32 32 32 33
30 29 29 29 30 30 30 30 29 29 30 29 28 27 25 26 25 25 25 23 23 22 21 19 18 17 18 16 15 16 17 19 18 17 17 17 17 17 18 19 19 19 19 20 21 21 22 21 21 21 21 21 22 25 27 27 27 28 28 28 29 29 29 30 30 30 30 30 31 31 31 31 31 32 32 32 32 32 32 32 32 32 32 31 31 31
28 28 28 29 29 29 30 30 29 29 29 29 28 28 28 27 25 24 22 21 21 22 21 21 21 20 18 16 16 16 16 19 20 19 17 17 17 17 17 17 17 17 19 20 21 22 23 22 22 21 21 21 22 24 27 27 27 27 27 28 28 28 28 29 29 29 30 30 30 30 30 31 31 31 31 31 31 31 31 31 32 31 31 30 30 29
28 28 28 28 28 29 28 28 28 28 28 27 27 27 27 25 23 22 21 20 20 21 22 22 21 21 20 19 18 17 16 18 20 20 18 18 16 16 16 16 16 17 18 20 20 21 20 21 21 20 20 23 24 25 25 25 25 26 26 27 27 27 27 28 28 28 29 29 30 30 30 30 30 30 31 31 31 31 31 31 31 31 30 29 28 28
23 24 23 24 24 24 23 22 24 26 27 27 26 26 26 24 21 20 20 20 20 20 20 21 21 21 21 21 19 17 15 16 18 19 18 17 16 15 15 16 16 17 18 19 19 19 18 20 20 20 20 23 23 23 21 22 23 23 24 25 25 26 27 27 27 28 28 28 29 29 30 30 30 30 30 30 30 30 31 31 30 30 29 28 27 27
16 18 17 17 17 17 18 19 20 22 24 25 25 25 25 22 20 18 18 18 18 18 17 19 20 21 21 20 18 16 13 16 19 20 17 17 16 16 16 16 17 17 19 20 19 18 18 19 20 21 21 21 21 21 21 21 21 21 21 22 23 24 26 26 26 27 27 28 28 28 29 29 29 29 30 30 30 30 30 30 30 30 28 27 27 27
15 16 16 15 15 15 16 17 17 17 18 20 21 23 24 22 21 19 18 18 18 18 17 17 19 20 21 20 19 17 16 16 20 22 20 19 19 19 18 19 19 20 21 21 20 19 17 18 19 20 20 20 20 21 21 21 21 21 21 21 21 22 25 25 25 26 26 27 27 27 28 28 28 29 29 29 30 30 30 30 30 29 28 27 27 27
16 16 15 15 14 14 15 15 14 15 17 17 18 19 21 21 23 23 20 19 19 19 18 18 19 20 21 21 20 20 19 18 21 23 23 22 21 21 21 21 21 21 21 21 21 20 19 18 19 19 19 20 20 20 21 21 21 21 21 21 21 21 23 24 24 24 25 25 26 26 27 27 28 28 28 29 29 29 30 30 30 29 28 27 27 27
15 15 14 14 13 12 13 12 13 14 16 17 18 20 20 20 21 22 22 21 21 21 20 20 20 20 20 20 20 20 20 20 22 25 24 24 23 22 21 21 21 20 20 20 20 20 19 19 19 19 19 19 20 20 20 21 21 21 21 21 20 20 21 22 22 22 23 24 24 24 25 25 26 27 27 28 28 29 29 29 30 30 30 29 28 28
13 14 14 12 11 12 12 12 13 15 16 17 18 19 20 19 19 20 22 22 23 23 23 22 21 21 21 20 20 20 20 19 22 25 25 24 23 22 21 21 20 20 20 19 19 19 18 19 19 19 19 19 19 20 20 20 20 21 21 21 21 21 21 21 21 22 22 22 22 22 23 23 24 25 25 27 28 28 29 29 30 30 30 30 30 29
11 12 12 11 11 12 12 14 15 16 16 16 16 16 17 17 18 19 19 20 22 24 25 25 24 23 22 21 21 20 21 20 21 24 25 24 24 23 21 21 21 21 20 20 19 19 18 18 19 20 20 19 18 19 19 20 20 20 21 21 21 21 21 22 22 22 21 22 22 22 22 22 23 24 25 27 28 29 29 29 30 30 30 30 30 30
10 11 12 10 10 12 13 12 13 14 15 15 15 15 16 15 16 16 16 16 17 19 22 24 25 25 25 24 23 22 22 22 22 23 24 24 24 23 22 21 21 21 21 21 20 20 19 19 19 19 19 18 18 18 19 20 20 20 20 21 21 21 21 22 23 22 22 22 22 23 23 23 24 25 25 27 28 28 29 29 29 29 30 30 30 30
10 11 11 10 9 10 11 12 13 15 16 15 16 16 16 14 13 14 15 13 13 14 17 19 20 21 24 25 25 24 23 23 23 23 24 25 24 24 23 22 22 22 22 22 21 21 20 19 18 18 17 17 18 19 20 20 20 20 20 21 21 21 22 22 22 23 22 23 24 24 25 25 25 25 25 26 26 26 26 26 27 28 28 29 29 29
8 9 9 10 11 11 11 12 13 15 16 16 16 16 16 15 15 15 15 14 14 15 16 17 18 19 19 21 23 25 25 24 24 24 25 25 25 24 24 23 22 22 23 23 23 22 21 20 19 18 18 18 18 19 20 20 20 20 20 21 21 22 22 22 23 23 23 23 24 25 25 24 24 24 24 24 24 24 24 24 25 26 26 26 27 28
9 9 10 13 14 13 11 14 16 16 15 16 17 19 18 18 18 18 17 18 19 19 17 18 20 21 22 23 25 25 25 25 26 26 26 26 25 25 24 24 23 23 23 23 23 23 22 21 21 20 20 19 19 19 20 20 20 21 21 21 21 21 21 22 23 23 23 23 23 24 24 24 24 24 24 24 25 24 24 24 25 25 26 25 25 25
10 10 11 13 16 16 17 17 16 15 15 16 16 16 17 18 18 19 21 21 22 22 22 22 22 22 23 22 22 23 24 25 25 26 26 25 25 25 25 24 24 24 23 23 23 23 23 22 21 21 21 20 20 20 20 20 21 22 22 21 21 21 22 23 23 23 23 23 24 24 24 24 24 25 24 25 25 25 25 25 25 25 25 25 25 24
15 14 13 14 15 15 14 14 15 17 19 17 17 18 19 20 20 20 21 21 21 21 21 22 21 21 21 21 21 22 23 24 25 25 25 24 24 25 25 25 24 24 24 23 23 23 23 23 22 21 21 21 21 20 20 20 21 22 22 21 21 22 22 23 22 22 22 23 23 24 25 24 24 24 24 25 25 25 25 25 25 26 26 25 25 25
14 15 16 16 15 15 15 18 20 20 20 18 17 18 19 21 21 21 22 21 21 21 21 21 21 21 21 21 21 21 21 22 23 24 25 23 22 22 24 24 24 24 23 23 22 22 22 23 22 22 22 21 21 21 20 21 21 21 21 22 22 21 21 21 21 21 22 23 23 23 24 24 24 24 24 25 25 25 25 25 26 27 27 25 25 25
16 18 20 20 19 19 20 20 19 18 17 17 17 17 18 20 21 21 22 21 21 21 21 21 21 21 21 20 20 20 20 21 21 22 23 24 24 23 23 24 24 24 23 23 22 22 21 22 22 22 22 22 21 21 21 21 21 21 21 21 22 21 21 21 21 22 22 23 23 23 24 24 24 24 24 24 24 24 24 24 24 24 25 25 25 25
18 20 21 21 21 20 19 18 18 18 18 18 17 16 17 19 21 21 21 21 21 21 21 21 21 21 20 20 20 20 20 20 20 20 20 23 25 26 25 24 24 24 23 23 23 22 22 21 21 21 22 22 21 21 21 21 21 21 21 22 22 22 22 22 22 22 22 22 23 23 23 24 24 24 23 23 23 23 23 23 23 24 24 24 25 25
19 21 21 20 19 18 18 17 17 17 16 17 17 18 18 20 20 21 21 21 21 21 21 21 21 21 20 20 20 20 19 19 19 20 19 20 21 22 24 25 24 24 23 23 23 23 22 22 22 21 21 21 21 21 21 21 21 21 21 21 21 21 21 22 22 22 22 22 22 23 23 24 24 23 23 23 23 23 23 23 23 23 24 24 24 25
20 20 18 18 18 17 17 17 17 16 16 16 17 18 19 20 20 20 21 21 21 21 21 21 21 21 20 20 19 19 19 19 19 19 19 19 19 20 21 22 24 24 24 23 23 23 23 23 23 23 22 21 21 20 20 21 21 21 21 21 21 21 21 21 21 22 22 22 23 23 23 24 23 23 22 22 22 22 23 23 23 24 24 24 24 25
19 19 18 18 18 17 17 17 17 16 16 17 17 18 19 20 20 21 21 21 21 21 21 21 20 20 19 19 19 19 19 19 19 19 19 19 19 20 21 21 22 23 23 24 24 24 24 24 24 24 23 22 21 21 21 21 21 21 21 21 21 21 21 21 22 22 23 23 23 23 23 23 23 23 22 22 22 22 22 22 23 23 24 24 24 25
19 19 18 18 17 17 17 17 16 16 16 17 17 18 19 20 21 21 21 21 21 20 20 20 19 19 19 19 19 19 20 20 20 19 19 19 19 20 20 21 21 22 22 23 23 23 23 24 25 25 25 24 23 22 21 21 21 21 22 22 22 22 22 22 22 22 22 23 23 23 23 23 23 23 23 22 22 22 22 22 23 23 24 24 24 24
18 17 17 16 16 16 17 17 16 16 17 17 18 18 19 20 20 20 20 20 20 20 20 20 19 19 19 19 19 19 20 20 19 19 19 20 20 20 21 21 21 21 21 21 21 21 21 22 23 24 25 25 25 23 22 22 22 22 22 22 22 22 21 21 22 22 22 22 23 24 25 24 23 23 23 22 22 22 22 22 22 23 23 23 23 24
16 15 15 15 16 16 17 17 17 17 17 18 18 19 19 20 20 20 19 20 20 20 20 20 19 19 19 19 19 19 20 20 20 20 20 20 21 21 21 21 21 21 21 20 20 19 19 18 18 19 21 23 24 24 22 21 21 21 21 21 21 21 21 21 21 21 22 22 22 23 23 23 23 22 22 22 22 22 22 21 21 21 22 22 23 23